AAL17 KSTL-KHOU

Flight info

Callsign AAL17
Flight time 0h 43m
Altitude 36000
Route BERYY6 LITTR Q33 SWEUP WAPPL7
Aircraft B77W/H-SDE1E2E3FGHIJ2J3J4J5M1RWXY/LB1D1

Departure

Time 2026-05-05 04:25
Airport St. Louis Lambert International Airport (KSTL)

Arrival

Time 2026-05-05 05:09
Airport William P. Hobby Airport (KHOU)
Time Latitude Longitude Altitude Speed Heading
2026-05-05 04:02 38.74639 -90.37381 562 ft 0 kts 201°
2026-05-05 04:19 38.74656 -90.37373 569 ft 4 kts 201°
2026-05-05 04:19 38.74665 -90.37369 570 ft 0 kts 201°
2026-05-05 04:22 38.74656 -90.37379 570 ft 5 kts 230°
2026-05-05 04:22 38.74685 -90.37494 572 ft 17 kts 309°
2026-05-05 04:22 38.74718 -90.37516 563 ft 0 kts 334°
2026-05-05 04:23 38.74725 -90.37521 571 ft 2 kts 333°
2026-05-05 04:23 38.74738 -90.37529 570 ft 0 kts 332°
2026-05-05 04:23 38.74742 -90.37532 569 ft 1 kts 332°
2026-05-05 04:23 38.74799 -90.37558 567 ft 22 kts 347°
2026-05-05 04:24 38.75015 -90.37572 563 ft 34 kts 341°
2026-05-05 04:24 38.75181 -90.37775 561 ft 34 kts 303°
2026-05-05 04:24 38.75311 -90.37966 557 ft 24 kts 355°
2026-05-05 04:25 38.75033 -90.37191 570 ft 120 kts 122°
2026-05-05 04:25 38.74442 -90.35991 600 ft 192 kts 124°
2026-05-05 04:25 38.73718 -90.34442 1109 ft 213 kts 125°
2026-05-05 04:25 38.72897 -90.32771 1679 ft 233 kts 128°
2026-05-05 04:26 38.72004 -90.30999 2545 ft 242 kts 129°
2026-05-05 04:26 38.71004 -90.29165 2926 ft 261 kts 139°
2026-05-05 04:26 38.69482 -90.27961 3490 ft 258 kts 175°
2026-05-05 04:26 38.67753 -90.28025 4306 ft 247 kts 199°
2026-05-05 04:27 38.66045 -90.28536 5032 ft 255 kts 199°
2026-05-05 04:27 38.64305 -90.29066 5918 ft 256 kts 202°
2026-05-05 04:27 38.62753 -90.30096 6569 ft 251 kts 224°
2026-05-05 04:27 38.61399 -90.31560 7238 ft 259 kts 224°
2026-05-05 04:28 38.60000 -90.33035 8092 ft 263 kts 224°
2026-05-05 04:28 38.58570 -90.34535 8900 ft 268 kts 224°
2026-05-05 04:28 38.57114 -90.36062 9666 ft 275 kts 224°
2026-05-05 04:28 38.55620 -90.37624 10398 ft 281 kts 224°
2026-05-05 04:29 38.53996 -90.39126 10869 ft 302 kts 213°
2026-05-05 04:29 38.51965 -90.40252 11087 ft 334 kts 206°
2026-05-05 04:29 38.49492 -90.41441 11479 ft 361 kts 205°
2026-05-05 04:29 38.40277 -90.45760 15082 ft 384 kts 205°
2026-05-05 04:30 38.30024 -90.50705 18744 ft 404 kts 206°
2026-05-05 04:30 38.19217 -90.55948 21872 ft 425 kts 206°
2026-05-05 04:30 38.07909 -90.61417 24601 ft 445 kts 206°
2026-05-05 04:30 37.96265 -90.67027 26984 ft 460 kts 206°
2026-05-05 04:31 37.84013 -90.72912 29073 ft 476 kts 206°
2026-05-05 04:31 37.71515 -90.78888 30916 ft 483 kts 207°
2026-05-05 04:31 37.59020 -90.84836 33048 ft 476 kts 208°
2026-05-05 04:31 37.46702 -90.90690 34788 ft 472 kts 210°
2026-05-05 04:32 37.34410 -90.96510 36308 ft 469 kts 211°
2026-05-05 04:32 37.29437 -90.98858 36890 ft 467 kts 212°
2026-05-05 04:32 37.26403 -91.00289 37229 ft 467 kts 212°
2026-05-05 04:32 37.23358 -91.01725 37557 ft 466 kts 212°
2026-05-05 04:33 37.20335 -91.03148 37976 ft 464 kts 212°
2026-05-05 04:33 37.17304 -91.04574 38086 ft 466 kts 213°
2026-05-05 04:33 37.14271 -91.06004 38077 ft 466 kts 213°
2026-05-05 04:34 37.08213 -91.08845 38079 ft 463 kts 213°
2026-05-05 04:34 36.91979 -91.16443 38082 ft 459 kts 213°
2026-05-05 04:35 36.68047 -91.27585 38077 ft 459 kts 213°
2026-05-05 04:35 36.50690 -91.35626 38115 ft 468 kts 213°
2026-05-05 04:36 36.34181 -91.43231 38109 ft 479 kts 212°
2026-05-05 04:36 36.23318 -91.48199 37905 ft 476 kts 216°
2026-05-05 04:36 36.20217 -91.49613 37999 ft 474 kts 217°
2026-05-05 04:37 36.13996 -91.52468 38096 ft 478 kts 216°
2026-05-05 04:37 36.07753 -91.55331 38112 ft 483 kts 216°
2026-05-05 04:38 36.01433 -91.58214 38123 ft 486 kts 216°
2026-05-05 04:38 35.95072 -91.61103 38138 ft 486 kts 215°
2026-05-05 04:39 35.88733 -91.63976 38137 ft 484 kts 215°
2026-05-05 04:39 35.82421 -91.66832 38140 ft 481 kts 215°
2026-05-05 04:40 35.76168 -91.69660 38148 ft 477 kts 215°
2026-05-05 04:40 35.65442 -91.74505 38143 ft 471 kts 215°
2026-05-05 04:41 35.41032 -91.85485 38136 ft 463 kts 215°
2026-05-05 04:41 35.17323 -91.96092 38172 ft 471 kts 214°
2026-05-05 04:42 35.02058 -92.02873 38164 ft 478 kts 214°
2026-05-05 04:42 34.95498 -92.05764 38152 ft 468 kts 214°
2026-05-05 04:43 34.84272 -92.10736 38158 ft 465 kts 215°
2026-05-05 04:43 34.78125 -92.13462 38179 ft 474 kts 214°
2026-05-05 04:44 34.71920 -92.16187 38168 ft 474 kts 215°
2026-05-05 04:44 34.65574 -92.18531 38163 ft 492 kts 205°
2026-05-05 04:45 34.58749 -92.19845 38163 ft 498 kts 202°
2026-05-05 04:45 34.51908 -92.21052 38153 ft 496 kts 203°
2026-05-05 04:46 34.30139 -92.25162 38140 ft 493 kts 204°
2026-05-05 04:46 34.03121 -92.30222 38147 ft 491 kts 204°
2026-05-05 04:47 33.76058 -92.35236 38146 ft 491 kts 204°
2026-05-05 04:47 33.49000 -92.40237 38164 ft 492 kts 204°
2026-05-05 04:48 33.21951 -92.45204 38190 ft 493 kts 204°
2026-05-05 04:48 32.94711 -92.50175 38179 ft 495 kts 203°
2026-05-05 04:49 32.67608 -92.55089 38194 ft 496 kts 203°
2026-05-05 04:49 32.40275 -92.60015 38197 ft 497 kts 203°
2026-05-05 04:50 32.12889 -92.64920 38202 ft 497 kts 202°
2026-05-05 04:50 31.89250 -92.75499 38239 ft 429 kts 234°
2026-05-05 04:51 31.70747 -92.93444 38208 ft 432 kts 233°
2026-05-05 04:51 31.52092 -93.11417 38212 ft 434 kts 233°
2026-05-05 04:52 31.33355 -93.29374 38211 ft 436 kts 232°
2026-05-05 04:52 31.14546 -93.47305 38220 ft 437 kts 232°
2026-05-05 04:53 30.95738 -93.65141 38218 ft 439 kts 231°
2026-05-05 04:53 30.86370 -93.73977 37981 ft 424 kts 231°
2026-05-05 04:53 30.81575 -93.78517 36332 ft 430 kts 231°
2026-05-05 04:53 30.72401 -93.87107 34411 ft 415 kts 230°
2026-05-05 04:54 30.63546 -93.95379 32547 ft 400 kts 230°
2026-05-05 04:54 30.58524 -94.00843 31137 ft 383 kts 241°
2026-05-05 04:54 30.51913 -94.10400 29246 ft 373 kts 240°
2026-05-05 04:54 30.45473 -94.19628 27357 ft 364 kts 239°
2026-05-05 04:55 30.39762 -94.27779 25817 ft 356 kts 238°
2026-05-05 04:55 30.38203 -94.30002 25408 ft 354 kts 238°
2026-05-05 04:55 30.36653 -94.32211 24997 ft 353 kts 238°
2026-05-05 04:55 30.32069 -94.38736 23807 ft 349 kts 237°
2026-05-05 04:56 30.25966 -94.47406 22012 ft 345 kts 236°
2026-05-05 04:56 30.20025 -94.55829 20363 ft 340 kts 236°
2026-05-05 04:56 30.14725 -94.64800 18734 ft 329 kts 250°
2026-05-05 04:56 30.13931 -94.67410 18478 ft 315 kts 255°
2026-05-05 04:57 30.12509 -94.72757 17503 ft 278 kts 256°
2026-05-05 04:57 30.11601 -94.76182 16714 ft 256 kts 256°
2026-05-05 04:57 30.11078 -94.78138 16315 ft 255 kts 255°
2026-05-05 04:57 30.10548 -94.80125 16023 ft 275 kts 255°
2026-05-05 04:58 30.09656 -94.83453 15530 ft 303 kts 255°
2026-05-05 04:58 30.08803 -94.86600 15431 ft 287 kts 255°
2026-05-05 04:58 30.06449 -94.95273 13919 ft 280 kts 254°
2026-05-05 04:58 30.04136 -95.03763 12423 ft 269 kts 253°
2026-05-05 04:59 30.03069 -95.07674 11962 ft 262 kts 253°
2026-05-05 04:59 30.01623 -95.12951 11428 ft 284 kts 251°
2026-05-05 04:59 29.98908 -95.16278 10909 ft 287 kts 205°
2026-05-05 04:59 29.93841 -95.17813 10150 ft 279 kts 195°
2026-05-05 05:00 29.86524 -95.19909 8937 ft 263 kts 196°
2026-05-05 05:00 29.84596 -95.20494 8713 ft 264 kts 197°
2026-05-05 05:00 29.78774 -95.22329 8019 ft 283 kts 197°
2026-05-05 05:00 29.74480 -95.23666 7462 ft 273 kts 197°
2026-05-05 05:01 29.69889 -95.25422 6574 ft 266 kts 205°
2026-05-05 05:01 29.68226 -95.26278 6380 ft 258 kts 205°
2026-05-05 05:01 29.66634 -95.27138 6157 ft 246 kts 213°
2026-05-05 05:01 29.65250 -95.29014 5998 ft 227 kts 246°
2026-05-05 05:02 29.63438 -95.36025 6086 ft 234 kts 255°
2026-05-05 05:02 29.63487 -95.39316 6027 ft 229 kts 299°
2026-05-05 05:02 29.67448 -95.44375 5778 ft 233 kts 311°
2026-05-05 05:02 29.71886 -95.49839 4903 ft 231 kts 314°
2026-05-05 05:03 29.76217 -95.55000 4196 ft 221 kts 314°
2026-05-05 05:03 29.77408 -95.56075 4153 ft 223 kts 341°
2026-05-05 05:03 29.78959 -95.56065 4183 ft 229 kts 22°
2026-05-05 05:03 29.80719 -95.53902 3782 ft 241 kts 73°
2026-05-05 05:04 29.80897 -95.51963 3009 ft 256 kts 92°
2026-05-05 05:04 29.80805 -95.49880 2408 ft 264 kts 95°
2026-05-05 05:04 29.80657 -95.47788 2014 ft 254 kts 102°
2026-05-05 05:04 29.79927 -95.46111 1802 ft 220 kts 135°
2026-05-05 05:05 29.78895 -95.44926 1812 ft 206 kts 136°
2026-05-05 05:05 29.77875 -95.43768 1819 ft 207 kts 136°
2026-05-05 05:05 29.76862 -95.42584 1810 ft 208 kts 135°
2026-05-05 05:05 29.75859 -95.41392 1809 ft 206 kts 135°
2026-05-05 05:06 29.74869 -95.40210 1811 ft 200 kts 135°
2026-05-05 05:06 29.73958 -95.39120 1799 ft 180 kts 135°
2026-05-05 05:06 29.73125 -95.38126 1801 ft 167 kts 135°
2026-05-05 05:06 29.72322 -95.37167 1792 ft 165 kts 135°
2026-05-05 05:07 29.71526 -95.36218 1754 ft 167 kts 136°
2026-05-05 05:07 29.70725 -95.35266 1514 ft 166 kts 136°
2026-05-05 05:07 29.69931 -95.34317 1281 ft 162 kts 135°
2026-05-05 05:07 29.69151 -95.33387 1081 ft 161 kts 136°
2026-05-05 05:08 29.68368 -95.32453 874 ft 163 kts 136°
2026-05-05 05:08 29.67572 -95.31504 727 ft 167 kts 136°
2026-05-05 05:08 29.66760 -95.30534 546 ft 170 kts 135°
2026-05-05 05:08 29.65963 -95.29560 392 ft 162 kts 135°
2026-05-05 05:09 29.65202 -95.28647 113 ft 155 kts 135°
2026-05-05 05:09 29.64485 -95.27821 51 ft 137 kts 137°
2026-05-05 05:09 29.64040 -95.27287 49 ft 33 kts 131°
2026-05-05 05:09 29.63982 -95.27212 51 ft 0 kts 131°
2026-05-05 05:10 29.63965 -95.27189 49 ft 17 kts 128°
2026-05-05 05:10 29.63947 -95.26993 52 ft 14 kts 17°
2026-05-05 05:10 29.64040 -95.27069 51 ft 32 kts 319°
2026-05-05 05:10 29.64256 -95.27318 51 ft 58 kts 314°
2026-05-05 05:11 29.64542 -95.27677 51 ft 61 kts 316°
2026-05-05 05:11 29.64861 -95.27898 54 ft 47 kts 25°
2026-05-05 05:11 29.64997 -95.27649 49 ft 36 kts 38°
2026-05-05 05:11 29.65079 -95.27582 48 ft 0 kts 34°
2026-05-05 05:12 29.65140 -95.27497 51 ft 29 kts 51°
2026-05-05 05:12 29.65252 -95.27315 52 ft 27 kts 15°
2026-05-05 05:12 29.65341 -95.27379 47 ft 15 kts 324°
2026-05-05 05:12 29.65392 -95.27482 51 ft 15 kts 286°
2026-05-05 05:13 29.65398 -95.27506 48 ft 0 kts 284°